Home > Weather > Port Said > Past weeks

Flag for Egypt Weather for the Past 2 Weeks in Port Said, Egypt

Now
61 °F

Clear.


Feels Like: 61 °F
Forecast: 58 / 70 °F
Wind: 5 mph from Northeast

Location: Port Said Airport

Current Time: Feb 13, 2016 at 10:26:10 PM

Latest Report: Feb 13, 2016 at 9:00 PM


Visibility: 10 mi

Pressure: 30.12 "Hg

Humidity: 88%

Dew point: 57 °F

Location of Port SaidLocation

Historic Weather in Port Said — Graph

°F

Port Said Temperature Yesterday

Maximum temperature yesterday: 68 °F (at 2:00 PM)
Minimum temperature yesterday: 54 °F (at 6:00 AM)
Average temperature yesterday: 60 °F

High & Low Weather Summary for the Past Weeks

 TemperatureHumidityPressure
High72 °F (Feb 11, 3:00 AM)100% (Feb 6, 5:00 AM)30.42 "Hg (Feb 6, 5:00 AM)
Low48 °F (Feb 7, 7:00 AM)47% (Feb 11, 3:00 AM)29.92 "Hg (Feb 4, 10:00 PM)
Average58 °F79%30.18 "Hg
* Reported Jan 29 9:00 PM — Feb 13 9:00 PM, Port Said, Weather by CustomWeather, © 2016

Note: Actual official high and low records may vary slightly from our data, if they occured in-between our weather recording intervals... More about our weather records

Advertising

Port Said Weather History for the Previous 24 Hours

 ConditionsComfort  
Time TempWeatherWind HumidityBarometerVisibility
9:00 PM
Sat, Feb 13
61 °FClear.5 mph88%30.12 "Hg10 mi
8:00 PM63 °FClear.5 mph88%30.09 "Hg10 mi
7:00 PM63 °FClear.3 mph88%30.09 "Hg10 mi
6:00 PM63 °FClear.6 mph88%30.09 "Hg10 mi
5:00 PM64 °FSunny.7 mph83%30.07 "Hg10 mi
4:00 PM66 °FSunny.7 mph83%30.07 "Hg10 mi
3:00 PM64 °FSunny.9 mph83%30.07 "Hg10 mi
2:00 PM66 °FSunny.6 mph73%30.07 "Hg10 mi
1:00 PM66 °FSunny.6 mph68%30.09 "Hg10 mi
12:00 PM64 °FSunny.7 mph68%30.12 "Hg10 mi
11:00 AM63 °FSunny.7 mph73%30.12 "Hg10 mi
10:00 AM61 °FSunny.6 mph77%30.15 "Hg10 mi
9:00 AM57 °FSunny.5 mph88%30.15 "Hg10 mi
8:00 AM55 °FSunny.7 mph88%30.12 "Hg10 mi
7:00 AM55 °FSunny.6 mph94%30.12 "Hg10 mi
6:00 AM55 °FClear.6 mph94%30.12 "Hg10 mi
5:00 AM55 °FClear.7 mph94%30.12 "Hg10 mi
4:00 AM55 °FClear.6 mph94%30.15 "Hg10 mi
3:00 AM57 °FClear.8 mph88%30.15 "Hg10 mi
2:00 AM57 °FClear.7 mph88%30.15 "Hg10 mi
1:00 AM59 °FClear.6 mph82%30.15 "Hg10 mi
12:00 AM59 °FClear.6 mph82%30.18 "Hg10 mi
11:00 PM
Fri, Feb 12
59 °FClear.5 mph88%30.18 "Hg10 mi
10:00 PM61 °FClear.7 mph83%30.18 "Hg10 mi
Weather by CustomWeather, © 2016

See weather overviewHow to use our weather pages